This is the latest recevied weather packets stored in our database for station/object N3TTT-13. If no packets are shown the sender has not sent any weather packets the latest 10 day(s).
| Time | Temp. | Humidity | Pressure | Rain* | Wind** | Luminosity | Snow |
|---|---|---|---|---|---|---|---|
| 1777330556 | 14.44° C | 54% | 1023.9 hPa | 0 mm | - | 36 W/m² | - |
| 1777330254 | 14.44° C | 54% | 1024 hPa | 0 mm | - | 39 W/m² | - |
| 1777329951 | 15° C | 57% | 1023.7 hPa | 0 mm | - | 43 W/m² | - |
| 1777329650 | 15° C | 57% | 1023.8 hPa | 0 mm | - | 42 W/m² | - |
| 1777329348 | 15° C | 56% | 1023.9 hPa | 0 mm | - | 43 W/m² | - |
| 1777329045 | 15° C | 56% | 1023.9 hPa | 0 mm | - | 43 W/m² | - |
| 1777328743 | 15° C | 57% | 1023.7 hPa | 0 mm | - | 45 W/m² | - |
| 1777328440 | 15° C | 57% | 1023.8 hPa | 0 mm | - | 41 W/m² | - |
| 1777328139 | 15° C | 58% | 1023.8 hPa | 0 mm | - | 37 W/m² | - |
| 1777327837 | 15.56° C | 58% | 1023.8 hPa | 0 mm | - | 33 W/m² | - |
| 1777327534 | 15.56° C | 58% | 1023.9 hPa | 0 mm | - | 33 W/m² | - |
| 1777327232 | 15.56° C | 57% | 1023.9 hPa | 0 mm | - | 42 W/m² | - |
| 1777326928 | 16.11° C | 56% | 1023.8 hPa | 0 mm | - | 64 W/m² | - |
| 1777326626 | 16.67° C | 55% | 1023.8 hPa | 0 mm | - | 47 W/m² | - |
| 1777326322 | 17.22° C | 54% | 1024 hPa | 0 mm | - | 55 W/m² | - |
| 1777326020 | 17.22° C | 55% | 1023.5 hPa | 0 mm | - | 45 W/m² | - |
| 1777325718 | 17.22° C | 55% | 1023.8 hPa | 0 mm | - | 47 W/m² | - |
| 1777325416 | 17.22° C | 56% | 1023.6 hPa | 0 mm | - | 73 W/m² | - |
| 1777325114 | 17.78° C | 56% | 1023.4 hPa | 0 mm | - | 53 W/m² | - |
| 1777324809 | 17.78° C | 56% | 1023.4 hPa | 0 mm | - | 52 W/m² | - |
| 1777324508 | 17.78° C | 56% | 1023.7 hPa | 0 mm | - | 61 W/m² | - |
| 1777324204 | 17.78° C | 55% | 1023.4 hPa | 0 mm | - | 49 W/m² | - |
| 1777323903 | 17.78° C | 56% | 1023.5 hPa | 0 mm | - | 50 W/m² | - |
| 1777323599 | 18.33° C | 55% | 1023.4 hPa | 0 mm | - | 56 W/m² | - |
| 1777323296 | 18.89° C | 53% | 1023.4 hPa | 0 mm | - | 52 W/m² | - |
* Rain latest hour (hover to see other rain measurements)
** Current wind speed in m/s (hover to see current wind gust speed)